| time (UTC) | temp C | wind direction | speed KPH | gust KPH | rain 1hr cm | rain 24hr cm | rain mn cm | humidity % | barometer mb |
| 20260505063747 | 15 | 320 | 0.0 | 1.6 | 0.00 | 0.00 | 0.00 | 100 | 1011.4 |
| 20260505063247 | 15 | 262 | 0.0 | 0.0 | 0.00 | 0.00 | 0.00 | 100 | 1011.4 |
| 20260505062747 | 15 | 293 | 0.0 | 0.0 | 0.00 | 0.00 | 0.00 | 100 | 1011.2 |
| 20260505062245 | 15 | 291 | 0.0 | 4.8 | 0.00 | 0.00 | 0.00 | 100 | 1011.2 |
| 20260505061745 | 15 | 291 | 0.0 | 4.8 | 0.00 | 0.00 | 0.00 | 100 | 1011.1 |
| 20260505061245 | 16 | 40 | 0.0 | 1.6 | 0.00 | 0.00 | 0.00 | 100 | 1011.1 |
| 20260505060745 | 16 | 332 | 0.0 | 1.6 | 0.00 | 0.00 | 0.00 | 100 | 1010.9 |
| 20260505060245 | 16 | 332 | 0.0 | 1.6 | 0.00 | 0.00 | 0.00 | 100 | 1010.8 |
| 20260505055744 | 16 | 332 | 0.0 | 0.0 | 0.00 | 0.00 | 0.00 | 100 | 1010.8 |
| 20260505055244 | 16 | 183 | 0.0 | 0.0 | 0.00 | 0.00 | 0.00 | 100 | 1010.8 |
| 20260505054744 | 16 | 181 | 0.0 | 0.0 | 0.00 | 0.00 | 0.00 | 100 | 1010.7 |
| 20260505054244 | 16 | 183 | 0.0 | 1.6 | 0.00 | 0.00 | 0.00 | 100 | 1010.7 |
| 20260505053744 | 16 | 182 | 0.0 | 1.6 | 0.00 | 0.00 | 0.00 | 1 | 1010.7 |
| 20260505053244 | 16 | 179 | 0.0 | 1.6 | 0.00 | 0.00 | 0.00 | 1 | 1010.6 |
| 20260505053013 | 16 | 299 | 0.0 | 1.6 | 0.00 | 0.00 | 0.00 | 100 | 1010.6 |
| 20260505052503 | 17 | 297 | 0.0 | 1.6 | 0.00 | 0.00 | 0.00 | 2 | 1010.6 |
| 20260505051745 | 17 | 299 | 0.0 | 0.0 | 0.00 | 0.00 | 0.00 | 8 | 1010.6 |
| 20260505051507 | 17 | 298 | 0.0 | 0.0 | 0.00 | 0.00 | 0.00 | 8 | 1010.5 |
| 20260505050745 | 17 | 297 | 0.0 | 1.6 | 0.00 | 0.00 | 0.00 | 14 | 1010.5 |
| 20260505050509 | 17 | 297 | 0.0 | 3.2 | 0.00 | 0.00 | 0.00 | 15 | 1010.4 |
| 20260505041744 | 18 | 294 | 0.0 | 6.4 | 0.00 | 0.00 | 0.00 | 27 | 1010.1 |
| 20260505041243 | 18 | 331 | 0.0 | 6.4 | 0.00 | 0.00 | 0.00 | 26 | 1010.0 |
| 20260505040743 | 18 | 359 | 0.0 | 3.2 | 0.00 | 0.00 | 0.00 | 26 | 1009.9 |
| 20260505040244 | 18 | 348 | 0.0 | 3.2 | 0.00 | 0.00 | 0.00 | 24 | 1009.7 |
| 20260505035744 | 18 | 324 | 0.0 | 1.6 | 0.00 | 0.00 | 0.00 | 19 | 1009.7 |
| 20260505035243 | 18 | 359 | 0.0 | 3.2 | 0.00 | 0.00 | 0.00 | 16 | 1009.6 |
| 20260505034744 | 18 | 323 | 0.0 | 3.2 | 0.00 | 0.00 | 0.00 | 15 | 1009.6 |
| 20260505034244 | 18 | 324 | 0.0 | 3.2 | 0.00 | 0.00 | 0.00 | 14 | 1009.5 |
| 20260505033744 | 18 | 324 | 0.0 | 0.0 | 0.00 | 0.00 | 0.00 | 16 | 1009.4 |
| 20260505033244 | 18 | 324 | 0.0 | 0.0 | 0.00 | 0.00 | 0.00 | 18 | 1009.4 |
| 20260505032743 | 19 | 359 | 0.0 | 0.0 | 0.00 | 0.00 | 0.00 | 18 | 1009.3 |
| 20260505032243 | 19 | 324 | 0.0 | 0.0 | 0.00 | 0.00 | 0.00 | 20 | 1009.3 |
| 20260505031742 | 19 | 324 | 0.0 | 0.0 | 0.00 | 0.00 | 0.00 | 20 | 1009.3 |
| 20260505031512 | 19 | 324 | 0.0 | 0.0 | 0.00 | 0.00 | 0.00 | 29 | 1009.4 |
| 20260505031001 | 19 | 324 | 0.0 | 0.0 | 0.00 | 0.00 | 0.00 | 28 | 1009.3 |
| 20260505030241 | 20 | 359 | 0.0 | 1.6 | 0.00 | 0.00 | 0.00 | 27 | 1009.3 |
| 20260505025740 | 20 | 324 | 0.0 | 1.6 | 0.00 | 0.00 | 0.00 | 24 | 1009.2 |
| 20260505025240 | 20 | 359 | 0.0 | 0.0 | 0.00 | 0.00 | 0.00 | 28 | 1009.1 |
| 20260505024740 | 20 | 324 | 0.0 | 0.0 | 0.00 | 0.00 | 0.00 | 32 | 1009.0 |
| 20260505024240 | 20 | 323 | 0.0 | 0.0 | 0.00 | 0.00 | 0.00 | 39 | 1009.0 |
| 20260505023740 | 20 | 359 | 0.0 | 0.0 | 0.00 | 0.00 | 0.00 | 40 | 1009.0 |
| 20260505023240 | 20 | 359 | 0.0 | 0.0 | 0.00 | 0.00 | 0.00 | 43 | 1009.1 |
| 20260505023003 | 20 | 325 | 0.0 | 0.0 | 0.00 | 0.00 | 0.00 | 46 | 1009.2 |
| 20260505022459 | 20 | 324 | 0.0 | 0.0 | 0.00 | 0.00 | 0.00 | 43 | 1009.1 |
| 20260505021742 | 20 | 359 | 0.0 | 0.0 | 0.00 | 0.00 | 0.00 | 44 | 1009.1 |
| 20260505021240 | 20 | 324 | 0.0 | 0.0 | 0.00 | 0.00 | 0.00 | 46 | 1009.1 |
| 20260505020738 | 21 | 324 | 0.0 | 0.0 | 0.00 | 0.00 | 0.00 | 42 | 1009.2 |
| 20260505020238 | 20 | 324 | 0.0 | 0.0 | 0.00 | 0.00 | 0.00 | 44 | 1009.2 |
| 20260505015738 | 20 | 359 | 0.0 | 0.0 | 0.00 | 0.00 | 0.00 | 42 | 1009.2 |
| 20260505015238 | 20 | 324 | 0.0 | 3.2 | 0.00 | 0.00 | 0.00 | 39 | 1009.2 |
| 20260505015005 | 20 | 359 | 0.0 | 3.2 | 0.00 | 0.00 | 0.00 | 38 | 1009.1 |
| 20260505014501 | 20 | 45 | 0.0 | 0.0 | 0.00 | 0.00 | 0.00 | 33 | 1009.0 |
| 20260505013738 | 20 | 79 | 0.0 | 0.0 | 0.00 | 0.00 | 0.00 | 36 | 1009.0 |
| 20260505013238 | 20 | 79 | 0.0 | 0.0 | 0.00 | 0.00 | 0.00 | 35 | 1009.0 |
| 20260505012739 | 20 | 78 | 0.0 | 1.6 | 0.00 | 0.00 | 0.00 | 44 | 1009.1 |
| 20260505012238 | 21 | 78 | 0.0 | 1.6 | 0.00 | 0.00 | 0.00 | 31 | 1009.0 |
| 20260505011738 | 21 | 78 | 0.0 | 3.2 | 0.00 | 0.00 | 0.00 | 30 | 1009.1 |
| 20260505011239 | 21 | 81 | 0.0 | 3.2 | 0.00 | 0.00 | 0.00 | 40 | 1009.1 |
| 20260505010739 | 21 | 79 | 0.0 | 0.0 | 0.00 | 0.00 | 0.00 | 39 | 1009.1 |
| 20260505010239 | 21 | 77 | 0.0 | 0.0 | 0.00 | 0.00 | 0.00 | 38 | 1009.1 |
| 20260505005739 | 21 | 79 | 0.0 | 0.0 | 0.00 | 0.00 | 0.00 | 40 | 1009.1 |
| 20260505005239 | 21 | 79 | 0.0 | 0.0 | 0.00 | 0.00 | 0.00 | 39 | 1009.1 |
| 20260505004738 | 21 | 79 | 0.0 | 1.6 | 0.00 | 0.00 | 0.00 | 41 | 1009.1 |
| 20260505004238 | 21 | 79 | 0.0 | 1.6 | 0.00 | 0.00 | 0.00 | 41 | 1009.1 |
| 20260505003738 | 21 | 119 | 0.0 | 1.6 | 0.00 | 0.00 | 0.00 | 36 | 1009.1 |
| 20260505003728 | 21 | 120 | 0.0 | 1.6 | 0.00 | 0.00 | 0.00 | 38 | 1009.1 |
| 20260505002738 | 21 | 125 | 0.0 | 1.6 | 0.00 | 0.00 | 0.00 | 25 | 1009.0 |
| 20260505002238 | 21 | 122 | 0.0 | 1.6 | 0.00 | 0.00 | 0.00 | 35 | 1009.1 |
| 20260505001738 | 21 | 130 | 0.0 | 3.2 | 0.00 | 0.00 | 0.00 | 31 | 1009.0 |
| 20260505001238 | 21 | 129 | 0.0 | 3.2 | 0.00 | 0.00 | 0.00 | 38 | 1009.0 |
| 20260505000738 | 22 | 99 | 0.0 | 1.6 | 0.00 | 0.00 | 0.00 | 41 | 1009.0 |
| 20260505000238 | 23 | 100 | 0.0 | 1.6 | 0.00 | 0.00 | 0.00 | 54 | 1009.0 |
| 20260504235958 | 23 | 66 | 0.0 | 0.0 | 0.00 | 0.00 | 0.00 | 55 | 1009.0 |
| 20260504235238 | 23 | 66 | 0.0 | 0.0 | 0.00 | 0.00 | 0.00 | 55 | 1009.0 |
| 20260504234739 | 23 | 66 | 0.0 | 0.0 | 0.00 | 0.00 | 0.00 | 56 | 1009.1 |
| 20260504234457 | 23 | 66 | 0.0 | 0.0 | 0.00 | 0.00 | 0.00 | 55 | 1009.0 |
| 20260504233739 | 23 | 66 | 0.0 | 0.0 | 0.00 | 0.00 | 0.00 | 55 | 1009.1 |
| 20260504233238 | 23 | 65 | 0.0 | 0.0 | 0.00 | 0.00 | 0.00 | 56 | 1009.1 |
| 20260504233003 | 23 | 66 | 0.0 | 0.0 | 0.00 | 0.00 | 0.00 | 56 | 1009.1 |
| 20260504232238 | 23 | 66 | 0.0 | 1.6 | 0.00 | 0.00 | 0.00 | 55 | 1009.1 |
| 20260504231738 | 23 | 66 | 0.0 | 1.6 | 0.00 | 0.00 | 0.00 | 54 | 1009.1 |
| 20260504231238 | 23 | 47 | 0.0 | 3.2 | 0.00 | 0.00 | 0.00 | 56 | 1009.1 |
| 20260504230738 | 23 | 46 | 0.0 | 3.2 | 0.00 | 0.00 | 0.00 | 55 | 1009.1 |
| 20260504230239 | 23 | 45 | 0.0 | 1.6 | 0.00 | 0.00 | 0.00 | 56 | 1009.3 |
| 20260504225737 | 23 | 45 | 0.0 | 3.2 | 0.00 | 0.00 | 0.00 | 56 | 1009.4 |
| 20260504225723 | 23 | 45 | 0.0 | 3.2 | 0.00 | 0.00 | 0.00 | 55 | 1009.5 |
| 20260504224738 | 23 | 24 | 0.0 | 3.2 | 0.00 | 0.00 | 0.00 | 54 | 1009.5 |
| 20260504224237 | 23 | 76 | 0.0 | 3.2 | 0.00 | 0.00 | 0.00 | 56 | 1009.5 |
| 20260504223737 | 23 | 75 | 0.0 | 3.2 | 0.00 | 0.00 | 0.00 | 55 | 1009.6 |
| 20260504223237 | 22 | 67 | 0.0 | 1.6 | 0.00 | 0.00 | 0.00 | 53 | 1009.6 |
| 20260504222737 | 22 | 66 | 0.0 | 1.6 | 0.00 | 0.00 | 0.00 | 53 | 1009.7 |
| 20260504222238 | 22 | 65 | 0.0 | 1.6 | 0.00 | 0.00 | 0.00 | 47 | 1009.7 |
| 20260504221737 | 22 | 65 | 0.0 | 1.6 | 0.00 | 0.00 | 0.00 | 48 | 1009.8 |
| 20260504221236 | 22 | 93 | 0.0 | 3.2 | 0.00 | 0.00 | 0.00 | 40 | 1009.8 |
| 20260504220736 | 21 | 87 | 0.0 | 3.2 | 0.00 | 0.00 | 0.00 | 42 | 1009.9 |
| 20260504220236 | 21 | 87 | 0.0 | 3.2 | 0.00 | 0.00 | 0.00 | 30 | 1009.9 |
| 20260504215736 | 21 | 87 | 0.0 | 3.2 | 0.00 | 0.00 | 0.00 | 36 | 1010.0 |
| 20260504215236 | 21 | 86 | 1.6 | 4.8 | 0.00 | 0.00 | 0.00 | 26 | 1009.9 |
| 20260504214736 | 20 | 91 | 1.6 | 4.8 | 0.00 | 0.00 | 0.00 | 30 | 1010.0 |
| 20260504213735 | 20 | 127 | 0.0 | 4.8 | 0.00 | 0.00 | 0.00 | 24 | 1010.0 |
| 20260504213235 | 20 | 127 | 0.0 | 4.8 | 0.00 | 0.00 | 0.00 | 21 | 1010.1 |
| 20260504212736 | 20 | 100 | 0.0 | 3.2 | 0.00 | 0.00 | 0.00 | 34 | 1010.2 |
| 20260504212235 | 20 | 98 | 0.0 | 3.2 | 0.00 | 0.00 | 0.00 | 41 | 1010.3 |
| 20260504211736 | 21 | 97 | 1.6 | 3.2 | 0.00 | 0.00 | 0.00 | 43 | 1010.4 |
| 20260504211235 | 21 | 99 | 1.6 | 6.4 | 0.00 | 0.00 | 0.00 | 44 | 1010.3 |
| 20260504210736 | 21 | 98 | 1.6 | 6.4 | 0.00 | 0.00 | 0.00 | 44 | 1010.4 |
| 20260504210236 | 21 | 111 | 0.0 | 4.8 | 0.00 | 0.00 | 0.00 | 51 | 1010.4 |
| 20260504205736 | 21 | 110 | 0.0 | 3.2 | 0.00 | 0.00 | 0.00 | 54 | 1010.4 |
| 20260504205236 | 21 | 110 | 0.0 | 3.2 | 0.00 | 0.00 | 0.00 | 46 | 1010.4 |
| 20260504204736 | 21 | 131 | 0.0 | 3.2 | 0.00 | 0.00 | 0.00 | 40 | 1010.3 |
| 20260504204236 | 21 | 132 | 0.0 | 3.2 | 0.00 | 0.00 | 0.00 | 41 | 1010.4 |
| 20260504203736 | 21 | 130 | 0.0 | 1.6 | 0.00 | 0.00 | 0.00 | 41 | 1010.5 |
| 20260504203236 | 21 | 131 | 0.0 | 3.2 | 0.00 | 0.00 | 0.00 | 39 | 1010.4 |
| 20260504202736 | 20 | 130 | 0.0 | 3.2 | 0.00 | 0.00 | 0.00 | 37 | 1010.4 |
| 20260504202235 | 20 | 83 | 0.0 | 1.6 | 0.00 | 0.00 | 0.00 | 32 | 1010.4 |
| 20260504201736 | 20 | 85 | 1.6 | 4.8 | 0.00 | 0.00 | 0.00 | 33 | 1010.4 |
| 20260504201233 | 21 | 84 | 1.6 | 4.8 | 0.00 | 0.00 | 0.00 | 30 | 1010.4 |
| 20260504200955 | 21 | 83 | 1.6 | 3.2 | 0.00 | 0.00 | 0.00 | 45 | 1010.5 |
| 20260504200233 | 21 | 83 | 0.0 | 3.2 | 0.00 | 0.00 | 0.00 | 43 | 1010.5 |
| 20260504195734 | 21 | 85 | 0.0 | 3.2 | 0.00 | 0.00 | 0.00 | 38 | 1010.5 |
| 20260504195233 | 21 | 83 | 0.0 | 3.2 | 0.00 | 0.00 | 0.00 | 44 | 1010.4 |
| 20260504194734 | 22 | 83 | 0.0 | 3.2 | 0.00 | 0.00 | 0.00 | 49 | 1010.4 |
| 20260504194234 | 22 | 80 | 0.0 | 3.2 | 0.00 | 0.00 | 0.00 | 52 | 1010.4 |
| 20260504193733 | 22 | 81 | 0.0 | 3.2 | 0.00 | 0.00 | 0.00 | 54 | 1010.5 |
| 20260504193233 | 22 | 81 | 0.0 | 3.2 | 0.00 | 0.00 | 0.00 | 54 | 1010.5 |
| 20260504192733 | 21 | 82 | 0.0 | 1.6 | 0.00 | 0.00 | 0.00 | 57 | 1010.6 |
| 20260504192233 | 21 | 81 | 0.0 | 0.0 | 0.00 | 0.00 | 0.00 | 50 | 1010.6 |
| 20260504191734 | 21 | 81 | 0.0 | 0.0 | 0.00 | 0.00 | 0.00 | 44 | 1010.7 |
| 20260504191727 | 20 | 82 | 0.0 | 0.0 | 0.00 | 0.00 | 0.00 | 31 | 1010.7 |
| 20260504190733 | 20 | 81 | 0.0 | 0.0 | 0.00 | 0.00 | 0.00 | 26 | 1010.7 |
| 20260504190233 | 19 | 81 | 0.0 | 0.0 | 0.00 | 0.00 | 0.00 | 27 | 1010.8 |
| 20260504185957 | 18 | 81 | 0.0 | 0.0 | 0.00 | 0.00 | 0.00 | 25 | 1010.8 |
| 20260504185232 | 18 | 81 | 0.0 | 1.6 | 0.00 | 0.00 | 0.00 | 18 | 1010.8 |
| 20260504184733 | 18 | 82 | 0.0 | 1.6 | 0.00 | 0.00 | 0.00 | 15 | 1010.8 |
| 20260504184233 | 18 | 81 | 0.0 | 1.6 | 0.00 | 0.00 | 0.00 | 19 | 1010.8 |
| 20260504183733 | 17 | 81 | 0.0 | 1.6 | 0.00 | 0.00 | 0.00 | 20 | 1010.7 |
| 20260504183233 | 17 | 82 | 0.0 | 3.2 | 0.00 | 0.00 | 0.00 | 13 | 1010.7 |
| 20260504182733 | 17 | 81 | 0.0 | 3.2 | 0.00 | 0.00 | 0.00 | 7 | 1010.8 |
| 20260504182233 | 17 | 82 | 0.0 | 3.2 | 0.00 | 0.00 | 0.00 | 5 | 1010.7 |
| 20260504181733 | 17 | 84 | 0.0 | 1.6 | 0.00 | 0.00 | 0.00 | 6 | 1010.7 |
| 20260504181455 | 17 | 84 | 0.0 | 1.6 | 0.00 | 0.00 | 0.00 | 7 | 1010.7 |
| 20260504180954 | 17 | 83 | 0.0 | 1.6 | 0.00 | 0.00 | 0.00 | 9 | 1010.8 |
| 20260504180234 | 17 | 83 | 0.0 | 1.6 | 0.00 | 0.00 | 0.00 | 9 | 1010.8 |
| 20260504175733 | 17 | 84 | 0.0 | 1.6 | 0.00 | 0.00 | 0.00 | 17 | 1010.9 |
| 20260504175233 | 17 | 84 | 0.0 | 1.6 | 0.00 | 0.00 | 0.00 | 19 | 1010.9 |
| 20260504174733 | 17 | 84 | 0.0 | 3.2 | 0.00 | 0.00 | 0.00 | 18 | 1010.9 |
| 20260504174229 | 17 | 85 | 0.0 | 3.2 | 0.00 | 0.00 | 0.00 | 19 | 1010.9 |
| 20260504173731 | 17 | 83 | 0.0 | 1.6 | 0.00 | 0.00 | 0.00 | 42 | 1010.9 |
| 20260504173231 | 16 | 83 | 0.0 | 3.2 | 0.00 | 0.00 | 0.00 | 35 | 1011.0 |
| 20260504172731 | 16 | 83 | 0.0 | 3.2 | 0.00 | 0.00 | 0.00 | 25 | 1010.9 |
| 20260504172230 | 16 | 85 | 0.0 | 1.6 | 0.00 | 0.00 | 0.00 | 5 | 1010.9 |
| 20260504171730 | 15 | 85 | 0.0 | 1.6 | 0.00 | 0.00 | 0.00 | 1 | 1010.9 |
| 20260504171231 | 15 | 85 | 0.0 | 0.0 | 0.00 | 0.00 | 0.00 | 100 | 1010.9 |
| 20260504170731 | 15 | 84 | 0.0 | 0.0 | 0.00 | 0.00 | 0.00 | 100 | 1010.9 |
| 20260504170231 | 15 | 84 | 0.0 | 1.6 | 0.00 | 0.00 | 0.00 | 100 | 1010.9 |
| 20260504160229 | 15 | 83 | 0.0 | 3.2 | 0.00 | 0.00 | 0.00 | 100 | 1010.8 |
| 20260504150729 | 14 | 50 | 1.6 | 3.2 | 0.00 | 0.00 | 0.00 | 100 | 1010.4 |
| 20260504150229 | 14 | 50 | 0.0 | 3.2 | 0.00 | 0.00 | 0.00 | 100 | 1010.4 |
| 20260504141225 | 14 | 27 | 0.0 | 0.0 | 0.00 | 0.00 | 0.00 | 100 | 1010.2 |
| 20260504140725 | 13 | 27 | 0.0 | 0.0 | 0.00 | 0.00 | 0.00 | 100 | 1010.2 |
| 20260504140225 | 13 | 27 | 0.0 | 0.0 | 0.00 | 0.00 | 0.00 | 100 | 1010.1 |
| 20260504130726 | 12 | 27 | 0.0 | 0.0 | 0.00 | 0.00 | 0.00 | 100 | 1009.9 |
| 20260504130225 | 12 | 27 | 0.0 | 0.0 | 0.00 | 0.00 | 0.00 | 100 | 1009.8 |
| 20260504120221 | 13 | 27 | 0.0 | 0.0 | 0.00 | 0.00 | 0.00 | 100 | 1009.6 |
| 20260504110718 | 13 | 27 | 0.0 | 0.0 | 0.00 | 0.00 | 0.00 | 100 | 1009.8 |
| 20260504110218 | 13 | 27 | 0.0 | 0.0 | 0.00 | 0.00 | 0.00 | 100 | 1009.8 |
| 20260504100441 | 14 | 27 | 0.0 | 0.0 | 0.00 | 0.00 | 0.00 | 17 | 1009.4 |
| 20260504081715 | 15 | 27 | 0.0 | 0.0 | 0.00 | 0.00 | 0.00 | 41 | 1009.4 |
| 20260504081215 | 15 | 27 | 0.0 | 0.0 | 0.00 | 0.00 | 0.00 | 42 | 1009.4 |
| 20260504080715 | 15 | 28 | 0.0 | 0.0 | 0.00 | 0.00 | 0.00 | 42 | 1009.4 |
| 20260504080215 | 15 | 27 | 0.0 | 0.0 | 0.00 | 0.00 | 0.00 | 41 | 1009.5 |
| 20260504070213 | 16 | 27 | 0.0 | 0.0 | 0.00 | 0.00 | 0.00 | 54 | 1009.5 |